Location: Newark
(48.0000°N, 67.0000°E)
Time: 17:36:03
(UTC+00:00)

N. Korean satellite - Pass Details

Date: 02 February 2020
Orbit: 456 x 505 km, 97.2° (Epoch: 22 February)

Event Time Altitude Azimuth Distance (km) Brightness Sun altitude
Rises 00:42:05 0° 23° (NNE) 2,568 10.5 -23.1°
Reaches altitude 10° 00:44:24 10° 37° (NE) 1,690 9.7 -22.7°
Maximum altitude 00:47:30 26° 95° (E) 1,011 8.9 -22.2°
Drops below altitude 10° 00:50:36 10° 153° (SSE) 1,698 9.6 -21.7°
Sets 00:52:56 0° 167° (SSE) 2,582 10.4 -21.3°
